Location: Équennes
(49.7375°N, 1.9622°E)
Time: 18:17:04
(UTC+00:00)

Cosmos 2278 - Pass Details

Date: 26 September 2023
Orbit: 838 x 853 km, 71.1° (Epoch: 08 December)

Event Time Altitude Azimuth Distance (km) Brightness Sun altitude
Rises 01:41:58 0° 333° (NNW) 3,427 7.2 -35.2°
Reaches altitude 10° 01:44:31 10° 339° (NNW) 2,489 6.4 -35.0°
Enters shadow 01:48:40 41° 13° (NNE) 1,226 4.8 -34.5°
